Simultaneous Nadir Overpasses (SNOs) Predictions

Prediction of SNOs between NPP and TERRA Satellite Orbit:

Table of predicted SNOs for the next 14.0 days since TLE Epoch: 10/28/2022
Index Date (NPP) Time (NPP) Lat,Lon (NPP) SZA (NPP ) Date (TERRA) Time (TERRA) Lat,Lon (TERRA) SZA (TERRA ) Distance(km) Time Diff (sec)
1 10/30/2022 14:29:25 70.91, -42.15 84.71 10/30/2022 14:30:32 70.80, -40.09 84.60 76.19 67
2 10/30/2022 15:19:53 -70.09, 126.48 96.11 10/30/2022 15:20:10 -70.07, 126.49 96.13 2.43 17
3 10/30/2022 16:10:37 69.97, -66.03 83.79 10/30/2022 16:09:33 69.96, -65.99 83.78 1.64 64
4 11/02/2022 04:13:48 -70.12, -67.04 95.26 11/02/2022 04:14:24 -70.13, -67.01 95.26 1.29 36
5 11/02/2022 05:04:32 70.01, 100.44 84.64 11/02/2022 05:03:47 70.02, 100.50 84.65 2.38 45
6 11/04/2022 17:07:43 -70.17, 99.42 94.43 11/04/2022 17:08:38 -70.17, 99.47 94.43 1.70 55
7 11/04/2022 17:58:27 70.05, -93.10 85.48 11/04/2022 17:58:01 70.05, -93.03 85.47 2.50 26
8 11/07/2022 06:01:39 -70.26, -94.20 93.57 11/07/2022 06:02:51 -70.24, -94.00 93.59 7.86 72
9 11/07/2022 06:52:21 70.05, 73.44 86.24 11/07/2022 06:52:15 70.07, 73.41 86.25 2.07 6
10 11/07/2022 07:42:58 -69.69,-118.71 94.12 11/07/2022 07:41:46 -69.74,-119.40 94.08 27.07 72
11 11/09/2022 18:55:46 -70.94, 71.23 92.15 11/09/2022 18:56:54 -70.85, 73.31 92.24 76.56 68
12 11/09/2022 19:46:16 70.11,-120.12 87.02 11/09/2022 19:46:28 70.12,-120.09 87.04 1.79 12
13 11/09/2022 20:36:58 -70.01, 47.35 93.07 11/09/2022 20:35:55 -70.01, 47.41 93.07 2.28 63



Historial Predications of SNOs between NPP and TERRA
